Regional Weather Roundup
Issued by NWS

Home | Current Version | Previous Version | Graphics & Text | Print | Product List | Glossary On
Versions: 1 2 3 4 5 6 7 8 9 10 11 12 13 14 15 16 17 18 19 20 21 22 23 24 25 26 27 28 29 30 31 32 33 34 35 36 37 38 39 40 41 42 43 44 45 46 47 48 49 50
000
ASUS43 KDTX 010710
RWRMI
MICHIGAN HOURLY REGIONAL WEATHER ROUNDUP
NATIONAL WEATHER SERVICE DETROIT/PONTIAC MI
300 AM EDT SAT AUG 01 2015

NOTE: "FAIR" INDICATES FEW OR NO CLOUDS BELOW 12,000 FEET WITH NO
SIGNIFICANT WEATHER AND/OR OBSTRUCTION TO VISIBILITY.

MIZ047>049-052>055-059>063-066>070-074>076-081>083-010800-
SOUTHEAST LOWER MICHIGAN

CITY           SKY/WX    TMP DP  RH WIND       PRES   REMARKS
ADRIAN         CLEAR     61  54  77 W6        29.93F
ALMA           CLEAR     56  56  99 CALM      29.91S
ANN ARBOR      PTCLDY    60  53  77 W3        29.91S
BAD AXE        CLEAR     55  53  94 CALM      29.88S
DETROIT CITY   PTCLDY    70  54  56 W5        29.90R
DETROIT        PTCLDY    65  53  65 W3        29.91S
FLINT          CLEAR     63  56  78 SW3       29.90S
GROSSE ILE     CLEAR     66  54  63 CALM      29.89S
HILLSDALE      CLEAR     64  53  67 W6        29.95F
HOWELL         CLEAR     61  53  75 W6        29.91S

CITY           SKY/WX    TMP DP  RH WIND       PRES   REMARKS
JACKSON        CLEAR     60  53  77 W6        29.93S
LAMBERTVILLE   CLEAR     64  55  70 W3        29.93S
LANSING        CLEAR     63  55  75 W5        29.92S
LAPEER         NOT AVBL
MASON          CLEAR     60  53  77 CALM      29.93R
MONROE         CLEAR     60  55  84 W5        29.90S
MT. CLEMENS    PTCLDY    67  55  64 W6        29.87S
PONTIAC        PTCLDY    65  56  72 CALM      29.90S
PORT HOPE        N/A     67  58  72 NW9       29.85S
PORT HURON     MOCLDY    57  57 100 CALM      29.88S
TRI CITIES     CLEAR     62  55  77 W7        29.89S
YPSILANTI      CLEAR     67  54  63 NW9       29.91F
$$
MIZ043>046-050>051-056>058-064>065-071>073-077>080-010800-
SOUTHWEST LOWER MICHIGAN

CITY           SKY/WX    TMP DP  RH WIND       PRES   REMARKS
BATTLE CREEK   CLEAR     64  56  75 W7        29.94F
BENTON HARBOR  CLEAR     71  60  68 NW7       29.96R
BIG RAPIDS     CLEAR     57  56  95 CALM      29.91F FOG
COLDWATER      CLEAR     58  53  82 SW5       29.95F
HOLLAND        CLEAR     69  60  73 W5        29.95S
GRAND RAPIDS   CLEAR     63  58  83 SW6       29.93S
KALAMAZOO      CLEAR     65  57  75 W6        29.95S
MARSHALL       CLEAR     60  54  79 CALM      29.94S
MUSKEGON       CLEAR     70  57  63 NW6       29.93S
$$
MIZ016>042-010800-
NORTHERN LOWER MICHIGAN

CITY           SKY/WX    TMP DP  RH WIND       PRES   REMARKS
ALPENA         CLEAR     58  54  86 SW5       29.85F
BEAVER ISLAND  FOG       56  55  96 CALM      29.84F VSB 1/2
BELLAIRE       CLEAR     53  51  92 CALM      29.87S
CADILLAC       CLEAR     55  54  95 CALM      29.91S
CHARLEVOIX     CLEAR     61  58  91 S5        29.88F
FRANKFORT      SUNNY     58  55  91 CALM      29.89S
GAYLORD        CLEAR     53  52  96 CALM      29.88F
GRAYLING       CLEAR     52  51  99 W5        29.89S
HARBOR SPRINGS CLEAR     56  54  92 CALM      29.85F
HOUGHTON LAKE  CLEAR     62  57  83 W6        29.90S
MANISTEE         N/A     55  52  88 E3        29.91S VSB 3/4
OSCODA         CLEAR     57  54  89 W5        29.86S
PELLSTON       CLEAR     50  49  96 CALM      29.85S
TRAVERSE CITY  CLEAR     61  57  87 CALM      29.86S
$$
MIZ007>008-015-010800-
EASTERN UPPER MICHIGAN

CITY           SKY/WX    TMP DP  RH WIND       PRES   REMARKS
KINROSS        CLEAR     54  52  94 W5        29.82F
MACKINAC ISLAN CLEAR     64  55  74 W6        29.83S
NEWBERRY       CLEAR     56  53  90 SW6       29.82F
S. S. MARIE    CLEAR     55  52  89 SW5       29.81S
$$
MIZ004>006-011>014-085-010800-
CENTRAL UPPER MICHIGAN

CITY           SKY/WX    TMP DP  RH WIND       PRES   REMARKS
MANISTIQUE     CLEAR     57  52  82 W5        29.83F
ESCANABA       CLEAR     55  52  88 W6        29.86S
MENOMINEE      MOCLDY    61  52  72 W6        29.89S
SAWYER-GWINN   CLEAR     57  51  80 W7        29.86F
$$
MIZ001>003-009>011-084-010800-
WESTERN UPPER MICHIGAN

CITY           SKY/WX    TMP DP  RH WIND       PRES   REMARKS
IRON MOUNTAIN  CLEAR     60  53  77 W8        29.88F
HOUGHTON       CLEAR     59  55  87 W10       29.85S
COPPER HARBOR    N/A     65  54  67 N15G21    29.81R
IRONWOOD       CLEAR     54  54 100 W6        29.89S
$$

ABBREVIATIONS USED IN REMARKS
   TC - TEMPERATURE IN CELSIUS
  WCI - WIND CHILL INDEX
   HX - HEAT INDEX
  VSB - VISIBILITY




USA.gov is the U.S. government's official web portal to all federal, state and local government web resources and services.